Home > Weather > Redmond > Past weeks

Flag for USA Past Weather in Redmond, Washington, USA — Yesterday and Last 2 Weeks

Now
55 °F

Mostly cloudy.


Feels Like: 53 °F
Forecast: 51 / 60 °F
Wind: 8 mph from South

Location: Seattle Boeing Field

Current Time: May 26, 2016 at 9:36:48 AM

Latest Report: May 26, 2016 at 8:53 AM


Visibility: 10 mi

Pressure: 30.19 "Hg

Humidity: 72%

Dew Point: 46 °F

Location of RedmondLocation

Past Weather in Redmond — Graph

°F

Redmond Temperature Yesterday

Maximum temperature yesterday: 65 °F (at 2:53 PM)
Minimum temperature yesterday: 55 °F (at 10:53 PM)
Average temperature yesterday: 59 °F

High & Low Weather Summary for the Past Weeks

 TemperatureHumidityPressure
High82 °F (May 13, 4:53 PM)100% (May 16, 4:53 AM)30.29 "Hg (May 16, 4:53 AM)
Low50 °F (May 19, 3:53 AM)25% (May 11, 1:53 PM)29.74 "Hg (May 21, 4:53 AM)
Average59 °F69%30.00 "Hg
* Reported May 11 7:53 AM — May 26 7:53 AM, Redmond, Weather by CustomWeather, © 2016

Note: Actual official high and low records may vary slightly from our data, if they occured in-between our weather recording intervals... More about our weather records

Advertising

Redmond Weather History for the Previous 24 Hours

Scroll right to see more
 ConditionsComfort  
Time TempWeatherWind HumidityBarometerVisibility
7:53 AM
Thu, May 26
54 °FMostly cloudy.6 mph72%30.20 "Hg10 mi
6:53 AM53 °FOvercast.12 mph72%30.19 "Hg10 mi
5:53 AM53 °FOvercast.10 mph72%30.19 "Hg10 mi
4:53 AM53 °FOvercast.9 mph72%30.19 "Hg10 mi
3:53 AM53 °FOvercast.12 mph69%30.19 "Hg10 mi
2:53 AM53 °FMostly cloudy.10 mph72%30.20 "Hg10 mi
1:53 AM54 °FOvercast.10 mph69%30.19 "Hg10 mi
12:53 AM55 °FOvercast.10 mph69%30.20 "Hg10 mi
11:53 PM
Wed, May 25
55 °FOvercast.8 mph69%30.20 "Hg10 mi
10:53 PM55 °FOvercast.7 mph69%30.20 "Hg10 mi
9:53 PM56 °FPassing clouds.7 mph70%30.19 "Hg10 mi
8:53 PM57 °FPartly sunny.6 mph72%30.18 "Hg10 mi
7:53 PM59 °FPartly sunny.8 mph67%30.17 "Hg10 mi
6:53 PM62 °FOvercast.6 mph65%30.16 "Hg10 mi
5:53 PM62 °FOvercast.10 mph65%30.18 "Hg10 mi
4:53 PM62 °FOvercast.10 mph65%30.17 "Hg10 mi
3:53 PM63 °FPartly sunny.9 mph63%30.18 "Hg10 mi
2:53 PM65 °FPartly sunny.12 mph61%30.16 "Hg10 mi
1:53 PM63 °FOvercast.8 mph65%30.16 "Hg10 mi
12:53 PM64 °FOvercast.9 mph65%30.16 "Hg10 mi
11:53 AM62 °FPartly sunny.8 mph67%30.15 "Hg10 mi
10:53 AM60 °FMostly cloudy.5 mph75%30.15 "Hg10 mi
9:53 AM57 °FOvercast.6 mph81%30.14 "Hg10 mi
Weather by CustomWeather, © 2016

See weather overviewHow to use our weather pages